Regional Weather Roundup
Issued by NWS

Home | Current Version | Previous Version | Graphics & Text | Print | Product List | Glossary On
Versions: 1 2 3 4 5 6 7 8 9 10 11 12 13 14 15 16 17 18 19 20 21 22 23 24 25 26 27 28 29 30 31 32 33 34 35 36 37 38 39 40 41 42 43 44 45 46 47 48 49 50
545
ASUS45 KTFX 210910
RWRMT
MONTANA REGIONAL WEATHER ROUNDUP
NATIONAL WEATHER SERVICE GREAT FALLS MT
300 AM MDT FRI JUL 21 2017

NOTE: "FAIR" INDICATES FEW OR NO CLOUDS BELOW 12000 FEET WITH NO
SIGNIFICANT WEATHER AND/OR OBSTRUCTIONS TO VISIBILITY.

MTZ001>007-043-211000-
WEST OF THE DIVIDE

CITY           SKY/WX    TMP DP  RH WIND       PRES   REMARKS
KALISPELL      PTCLDY    57  38  48 CALM      30.03R
MISSOULA       MOCLDY    60  39  45 MISG      30.07R
BUTTE          CLEAR     53  37  54 SE6       30.14R
MULLAN PASS    CLEAR     50  36  58 W8        30.17S
ANACONDA         N/A     57  37  47 W3        30.12R
DEER LODGE       N/A     63  37  39 N7        30.12R
EUREKA           N/A     61  39  44 MISG        N/A
HAMILTON         N/A     57  45  62 CALM      30.08R
LIBBY            N/A     52  39  62 CALM      30.02S
PLAINS           N/A     52  36  54 CALM      30.06R
$$

MTZ008-052>055-211000-
SOUTHWEST MONTANA

CITY           SKY/WX    TMP DP  RH WIND       PRES   REMARKS
DILLON         CLEAR     61  34  36 S6        30.10R
W YELLOWSTONE  CLEAR     48  37  66 CALM      30.18R
ENNIS          PTCLDY    59  36  41 SE6       30.15S
THREE FORKS      N/A     55  40  57 CALM      30.05R
TWIN BRIDGES     N/A     64  36  35 CALM      30.07R
$$

MTZ009-010-012-014-046-048-049-054-211000-
EAST SLOPES AND CENTRAL MONTANA

CITY           SKY/WX    TMP DP  RH WIND       PRES   REMARKS
CUT BANK       CLOUDY    63  35  35 W16       29.98R
GREAT FALLS    CLEAR     56  24  29 SW9       29.98R
HELENA         CLEAR     70  34  26 SW8       30.04S
CHOTEAU          N/A     64  30  27 MISG      30.00S
$$

MTZ011-013-016-021-045-047-050-051-211000-
NORTH CENTRAL MONTANA

CITY           SKY/WX    TMP DP  RH WIND       PRES   REMARKS
HAVRE          CLEAR     67  40  37 W12       29.87R
LEWISTOWN      CLOUDY    67  34  29 W10       29.99R
N BAR RANCH      N/A     70  30  23 NW17G25   29.99R
CHINOOK          N/A     66  46  48 W13       29.84R
$$

MTZ017>020-022>027-061-062-211000-
NORTHEAST MONTANA

CITY           SKY/WX    TMP DP  RH WIND       PRES   REMARKS
GLASGOW        CLOUDY    70  51  51 E17       29.80R
JORDAN           N/A     68  55  63 N10       29.78R
SIDNEY         CLOUDY    62  58  86 NW6       29.74F
WOLF POINT     PTCLDY    72  55  55 E16       29.79R
MALTA          PTCLDY    64  48  55 CALM      29.80R
PLENTYWOOD       N/A     64  55  72 NE22G31   29.81F
POPLAR           N/A     72  55  56 NE15G23   29.82R
SCOBEY           N/A     62  45  53 NE17      29.80F
$$

MTZ028>42-056>058-211000-
SOUTHCENTRAL AND SOUTHEAST MONTANA

CITY           SKY/WX    TMP DP  RH WIND       PRES   REMARKS
BAKER          CLOUDY    69  58  67 S3        29.84S
BILLINGS       PTCLDY    71  50  47 SW7       29.91R
LIVINGSTON     CLEAR     65  34  31 W8        30.05R
MILES CITY     MOCLDY    75  48  38 SE5       29.77F
BIG TIMBER     CLOUDY    68  32  26 S12       30.02R
EKALAKA          N/A     69  59  70 SE21      29.85F
FORSYTH          N/A     81  48  32 SW7       29.77F
LAUREL           N/A     71  34  25 W6        29.93R
$$

REGIONAL REPORTS...DAKOTAS

CITY           SKY/WX    TMP DP  RH WIND       PRES   REMARKS
WILLISTON      PTCLDY    71  58  63 N17       29.82R
MINOT          CLOUDY    67  60  78 SE8       29.76F
DICKINSON      CLOUDY    69  62  78 S18       29.78F
BEACH          MOCLDY    70  59  68 S9        29.83S
CROSBY           N/A     66  64  94 NW16G26   29.91R
TIOGA            N/A     63  59  88 N7        29.81R
WATFORD CITY     N/A     64  59  82 SE12      29.76R
BISMARCK       PTCLDY    69  63  81 E3        29.79F
GRAND FORKS    CLOUDY    72  66  81 E7        29.84F
FARGO          CLOUDY    75  68  78 SE12      29.84F
BUFFALO SD       N/A     67  62  84 S13       29.81S
RAPID CITY     CLOUDY    65  63  93 NW7       29.91F
$$

REGIONAL REPORTS...WYOMING/IDAHO/WASHINGTON

CITY           SKY/WX    TMP DP  RH WIND       PRES   REMARKS
GILLETTE       MOCLDY    68  57  68 S17G23    29.93F
SHERIDAN       CLOUDY    62  53  72 W6        29.89R
BUFFALO WY     CLOUDY    65  48  54 CALM      29.96F
CODY           CLOUDY    56  53  90 CALM      30.05R
YELLOWSTONE LA   N/A     41  41 100 NW3       30.28R
IDAHO FALLS    CLOUDY    57  44  62 SW7       30.08R
BOISE          CLEAR     63  46  54 S5        30.00R
SPOKANE        PTCLDY    61  41  47 S9        30.04S
$$

REGIONAL REPORTS...ALBERTA

CITY           SKY/WX    TMP DP  RH WIND       PRES   REMARKS
EDMONTON       CLOUDY    55  54  94 W5        29.81F
CALGARY        MOCLDY    63  37  39 W12G18    29.93S
LETHBRIDGE     CLEAR     54  41  62 W8        29.94S
MEDICINE HAT   CLEAR     63  48  59 W8        29.85R
WATERTON GATE    N/A     61  32  33 W13G21      N/A
CARDSTON         N/A     52  37  58 SE5         N/A
MILK RIVER       N/A     57  43  58 N3          N/A
$$

REGIONAL REPORTS...SASKATCHEWAN

CITY           SKY/WX    TMP DP  RH WIND       PRES   REMARKS
SWIFT CURRENT  CLEAR     59  54  82 SE8       29.80F
REGINA         CLOUDY    64  61  88 E17       29.82F
SASKATOON      LGT RAIN  63  55  77 SE13G22   29.78F
CYPRESS HILLS    N/A     61  41  48 W3          N/A
VAL MARIE        N/A     64  50  59 SE9         N/A
ROCKGLEN         N/A     61  50  67 E8          N/A
$$




USA.gov is the U.S. government's official web portal to all federal, state and local government web resources and services.